GW1690 Weather Reports


Display with metric or nautical units.
time (UTC)temp
F
wind
direction
speed
MPH
gust
MPH
rain 1hr
in
rain 24hr
in
rain mn
in
humidity
%
barometer
mb
20260906053047 86 244 2.0 3.0 0.00 0.00 0.00 71 1060.4
20260906052521 86 245 2.0 3.0 0.00 0.00 0.00 71 1060.0
20260906052042 86 237 2.0 3.0 0.00 0.00 0.00 71 1059.2
20260906051523 86 248 2.0 3.0 0.00 0.00 0.00 70 1058.4
20260906051021 86 234 2.0 3.0 0.00 0.00 0.00 70 1056.4
20260906050522 87 235 2.0 3.0 0.00 0.00 0.00 70 1055.4
20260906050042 87 236 2.0 3.0 0.00 0.00 0.00 69 1053.9
20260906045522 87 238 2.0 3.0 0.00 0.00 0.00 69 1051.9
20260906045021 87 233 2.0 2.0 0.00 0.00 0.00 69 1049.4
20260906044522 87 236 2.0 2.0 0.00 0.00 0.00 68 1048.1
20260906044023 87 240 2.0 3.0 0.00 0.00 0.00 68 1047.1
20260906043522 87 237 2.0 3.0 0.00 0.00 0.00 68 1044.8
20260906043023 88 243 2.0 3.0 0.00 0.00 0.00 67 1043.9
20260906042543 88 243 2.0 3.0 0.00 0.00 0.00 67 1042.3
20260906042022 88 238 2.0 2.0 0.00 0.00 0.00 66 1039.8
20260906041522 88 244 2.0 3.0 0.00 0.00 0.00 66 1038.9
20260906041023 88 240 2.0 2.0 0.00 0.00 0.00 66 1037.2
20260906040523 88 240 2.0 3.0 0.00 0.00 0.00 65 1035.6
20260906040023 88 242 2.0 3.0 0.00 0.00 0.00 65 1034.1
20260906035525 88 243 2.0 3.0 0.00 0.00 0.00 64 1032.3
20260906035021 89 240 2.0 3.0 0.00 0.00 0.00 64 1030.7
20260906034542 89 249 2.0 3.0 0.00 0.00 0.00 64 1029.4
20260906034041 89 248 2.0 3.0 0.00 0.00 0.00 63 1028.0
20260906033525 89 251 2.0 3.0 0.00 0.00 0.00 63 1026.4
20260906033023 89 250 2.0 3.0 0.00 0.00 0.00 62 1024.7
20260906032523 89 240 2.0 3.0 0.00 0.00 0.00 61 1022.6
20260906032024 89 252 2.0 4.0 0.00 0.00 0.00 61 1021.2
20260906031524 89 245 2.0 3.0 0.00 0.00 0.00 60 1019.3
20260906031021 89 241 2.0 2.0 0.00 0.00 0.00 59 1018.0
20260906030540 89 248 2.0 3.0 0.00 0.00 0.00 58 1017.4
20260906030040 89 253 2.0 3.0 0.00 0.00 0.00 58 1016.7
20260906025523 89 250 2.0 3.0 0.00 0.00 0.00 57 1016.2
20260906025021 89 249 2.0 3.0 0.00 0.00 0.00 57 1015.8
20260906024524 89 247 2.0 3.0 0.00 0.00 0.00 57 1015.5
20260906024025 89 247 2.0 3.0 0.00 0.00 0.00 57 1015.4
20260906023522 89 250 2.0 3.0 0.00 0.00 0.00 57 1015.5
20260906023021 89 242 2.0 3.0 0.00 0.00 0.00 57 1015.6
20260906022541 89 240 2.0 2.0 0.00 0.00 0.00 57 1015.3
20260906022041 89 240 2.0 2.0 0.00 0.00 0.00 56 1015.1
20260906021522 89 240 2.0 3.0 0.00 0.00 0.00 56 1014.9
20260906021022 89 238 2.0 3.0 0.00 0.00 0.00 56 1014.6
20260906020521 89 241 2.0 2.0 0.00 0.00 0.00 55 1014.3
20260906020022 90 238 2.0 2.0 0.00 0.00 0.00 55 1014.0
20260906015523 90 241 2.0 2.0 0.00 0.00 0.00 54 1013.9
20260906015042 90 241 2.0 2.0 0.00 0.00 0.00 54 1013.6
20260906014527 90 241 2.0 2.0 0.00 0.00 0.00 53 1013.4
20260906014102 91 243 2.0 2.0 0.00 0.00 0.00 53 1013.3
20260906013524 91 244 2.0 2.0 0.00 0.00 0.00 52 1013.0
20260906013042 91 237 1.0 2.0 0.00 0.00 0.00 52 1012.8
20260906012524 91 241 1.0 2.0 0.00 0.00 0.00 52 1012.6
20260906012043 91 239 1.0 2.0 0.00 0.00 0.00 51 1012.5
20260906011522 92 241 1.0 2.0 0.00 0.00 0.00 51 1012.4
20260906011024 92 241 1.0 2.0 0.00 0.00 0.00 51 1012.1
20260906010522 92 236 1.0 2.0 0.00 0.00 0.00 50 1012.0
20260906010023 92 251 1.0 2.0 0.00 0.00 0.00 50 1011.9
20260906005523 93 251 1.0 2.0 0.00 0.00 0.00 50 1011.9
20260906005043 93 258 2.0 2.0 0.00 0.00 0.00 50 1011.8
20260906004522 93 260 1.0 2.0 0.00 0.00 0.00 49 1011.5
20260906004027 94 262 1.0 2.0 0.00 0.00 0.00 49 1011.2
20260906003520 94 261 1.0 2.0 0.00 0.00 0.00 48 1011.0
20260906003020 94 267 1.0 2.0 0.00 0.00 0.00 48 1010.9
20260906002521 95 268 1.0 2.0 0.00 0.00 0.00 47 1010.7
20260906002021 95 270 1.0 2.0 0.00 0.00 0.00 47 1010.7
20260906001523 95 269 1.0 2.0 0.00 0.00 0.00 46 1010.3
20260906001123 95 270 1.0 1.0 0.00 0.00 0.00 46 1010.3
20260906000543 96 270 0.0 1.0 0.00 0.00 0.00 45 1010.1
20260906000023 96 273 1.0 1.0 0.00 0.00 0.00 45 1009.9
20260905235522 96 277 1.0 2.0 0.00 0.00 0.00 44 1009.8
20260905235021 96 281 1.0 2.0 0.00 0.00 0.00 44 1009.7
20260905234522 96 283 2.0 3.0 0.00 0.00 0.00 44 1009.7
20260905234021 96 280 1.0 2.0 0.00 0.00 0.00 44 1009.7
20260905233521 97 276 1.0 2.0 0.00 0.00 0.00 43 1009.6
20260905233041 97 277 1.0 2.0 0.00 0.00 0.00 43 1009.5
20260905232524 97 273 1.0 1.0 0.00 0.00 0.00 43 1009.4
20260905232025 97 273 1.0 2.0 0.00 0.00 0.00 43 1009.4
20260905231541 97 275 1.0 2.0 0.00 0.00 0.00 42 1009.3
20260905231023 97 279 1.0 3.0 0.00 0.00 0.00 42 1009.2
20260905230523 98 277 1.0 3.0 0.00 0.00 0.00 42 1009.1
20260905230042 98 278 2.0 4.0 0.00 0.00 0.00 41 1009.0
20260905225522 98 282 1.0 2.0 0.00 0.00 0.00 41 1008.8
20260905225023 99 281 2.0 3.0 0.00 0.00 0.00 40 1008.6
20260905224522 99 282 1.0 3.0 0.00 0.00 0.00 41 1008.7
20260905224022 99 286 1.0 2.0 0.00 0.00 0.00 41 1008.7
20260905223522 99 286 0.0 2.0 0.00 0.00 0.00 41 1008.8
20260905223022 99 287 1.0 3.0 0.00 0.00 0.00 41 1008.9
20260905222522 99 281 1.0 2.0 0.00 0.00 0.00 42 1009.0
20260905222022 99 283 2.0 3.0 0.00 0.00 0.00 41 1008.9
20260905221522 100 288 1.0 3.0 0.00 0.00 0.00 41 1008.9
20260905221043 100 287 1.0 2.0 0.00 0.00 0.00 40 1008.6
20260905220523 101 289 1.0 3.0 0.00 0.00 0.00 40 1008.6
20260905220022 101 288 1.0 4.0 0.00 0.00 0.00 40 1008.6
20260905215520 101 293 1.0 2.0 0.00 0.00 0.00 39 1008.6
20260905215020 101 280 1.0 2.0 0.00 0.00 0.00 39 1008.5
20260905214523 101 288 1.0 3.0 0.00 0.00 0.00 39 1008.5
20260905214023 101 288 1.0 3.0 0.00 0.00 0.00 39 1008.5
20260905213523 101 294 1.0 3.0 0.00 0.00 0.00 39 1008.5
20260905213026 101 275 1.0 3.0 0.00 0.00 0.00 39 1008.5
20260905212545 101 291 1.0 3.0 0.00 0.00 0.00 39 1008.5
20260905212022 101 287 1.0 3.0 0.00 0.00 0.00 38 1008.3
20260905211520 100 280 1.0 3.0 0.00 0.00 0.00 37 1008.2
20260905211022 100 285 1.0 5.0 0.00 0.00 0.00 38 1008.3
20260905210521 100 251 1.0 3.0 0.00 0.00 0.00 38 1008.4
20260905210020 100 224 1.0 4.0 0.00 0.00 0.00 39 1008.5
20260905205524 101 163 1.0 5.0 0.00 0.00 0.00 38 1008.4
20260905205022 102 152 2.0 5.0 0.00 0.00 0.00 37 1008.1
20260905204527 102 251 1.0 5.0 0.00 0.00 0.00 36 1008.0
20260905204022 102 274 1.0 2.0 0.00 0.00 0.00 36 1008.0
20260905203523 102 265 1.0 2.0 0.00 0.00 0.00 36 1008.1
20260905203021 102 295 1.0 3.0 0.00 0.00 0.00 36 1008.0
20260905202521 102 289 1.0 3.0 0.00 0.00 0.00 35 1007.8
20260905202022 101 294 2.0 4.0 0.00 0.00 0.00 35 1007.8
20260905201526 101 293 2.0 4.0 0.00 0.00 0.00 36 1008.1
20260905201042 101 291 2.0 3.0 0.00 0.00 0.00 36 1008.2
20260905200522 101 292 2.0 5.0 0.00 0.00 0.00 36 1008.2
20260905200021 101 281 0.0 2.0 0.00 0.00 0.00 37 1008.5
20260905195521 101 245 1.0 2.0 0.00 0.00 0.00 36 1008.3
20260905195045 102 287 2.0 4.0 0.00 0.00 0.00 36 1008.3
20260905194522 102 289 2.0 6.0 0.00 0.00 0.00 35 1008.3
20260905194024 102 290 1.0 4.0 0.00 0.00 0.00 35 1008.4
20260905193523 102 272 1.0 2.0 0.00 0.00 0.00 36 1008.6
20260905193040 102 217 1.0 4.0 0.00 0.00 0.00 36 1008.6
20260905192523 102 290 2.0 4.0 0.00 0.00 0.00 36 1008.6
20260905192022 102 287 1.0 4.0 0.00 0.00 0.00 36 1008.7
20260905191523 103 298 2.0 3.0 0.00 0.00 0.00 36 1008.7
20260905191022 103 296 2.0 4.0 0.00 0.00 0.00 35 1008.6
20260905190522 103 269 1.0 4.0 0.00 0.00 0.00 35 1008.6
20260905190023 103 278 1.0 3.0 0.00 0.00 0.00 35 1008.7
20260905185524 103 279 1.0 4.0 0.00 0.00 0.00 34 1008.4
20260905185022 103 296 2.0 3.0 0.00 0.00 0.00 34 1008.4
20260905184524 104 298 1.0 2.0 0.00 0.00 0.00 36 1008.9
20260905184020 104 242 1.0 2.0 0.00 0.00 0.00 36 1009.0
20260905183520 104 289 1.0 3.0 0.00 0.00 0.00 36 1008.8
20260905183022 105 293 1.0 3.0 0.00 0.00 0.00 36 1008.9
20260905182525 105 261 1.0 4.0 0.00 0.00 0.00 36 1008.9
20260905182025 105 272 1.0 4.0 0.00 0.00 0.00 36 1008.9
20260905181525 105 114 1.0 6.0 0.00 0.00 0.00 38 1009.0
20260905181045 106 259 1.0 4.0 0.00 0.00 0.00 36 1008.9
20260905180523 106 278 2.0 5.0 0.00 0.00 0.00 36 1008.8
20260905180021 105 262 1.0 4.0 0.00 0.00 0.00 36 1009.0
20260905175541 105 224 1.0 5.0 0.00 0.00 0.00 37 1009.3
20260905175021 105 264 1.0 4.0 0.00 0.00 0.00 37 1009.1
20260905174544 106 190 2.0 5.0 0.00 0.00 0.00 38 1009.2
20260905174021 106 244 1.0 4.0 0.00 0.00 0.00 38 1009.3
20260905173544 106 260 2.0 3.0 0.00 0.00 0.00 37 1009.3
20260905173021 105 252 1.0 4.0 0.00 0.00 0.00 36 1009.1
20260905172522 105 265 1.0 5.0 0.00 0.00 0.00 37 1009.3
20260905172021 105 226 2.0 4.0 0.00 0.00 0.00 38 1009.5
20260905171522 105 262 1.0 3.0 0.00 0.00 0.00 37 1009.6
20260905171022 105 287 2.0 5.0 0.00 0.00 0.00 37 1009.4
20260905170522 104 245 1.0 4.0 0.00 0.00 0.00 37 1009.5
20260905170021 103 255 1.0 5.0 0.00 0.00 0.00 38 1009.8
20260905165523 103 264 1.0 3.0 0.00 0.00 0.00 39 1009.9
20260905165022 103 290 2.0 4.0 0.00 0.00 0.00 40 1009.9
20260905164523 103 288 2.0 5.0 0.00 0.00 0.00 39 1009.9
20260905164022 103 285 2.0 4.0 0.00 0.00 0.00 39 1010.0
20260905163522 102 266 1.0 3.0 0.00 0.00 0.00 42 1010.5
20260905163024 101 268 1.0 3.0 0.00 0.00 0.00 43 1010.8
20260905162542 102 153 1.0 5.0 0.00 0.00 0.00 43 1010.7
20260905162023 102 194 1.0 3.0 0.00 0.00 0.00 41 1010.6
20260905161542 102 244 1.0 3.0 0.00 0.00 0.00 41 1010.3
20260905161023 101 288 1.0 4.0 0.00 0.00 0.00 42 1010.5
20260905160523 101 263 1.0 3.0 0.00 0.00 0.00 43 1010.9
20260905160042 101 189 1.0 3.0 0.00 0.00 0.00 43 1010.7
20260905155524 101 276 1.0 3.0 0.00 0.00 0.00 43 1010.8
20260905155023 100 285 1.0 3.0 0.00 0.00 0.00 43 1011.0
20260905154544 99 272 1.0 4.0 0.00 0.00 0.00 44 1010.9
20260905154025 98 281 1.0 4.0 0.00 0.00 0.00 45 1011.2
20260905153522 98 283 2.0 5.0 0.00 0.00 0.00 46 1011.5
20260905153023 97 280 1.0 3.0 0.00 0.00 0.00 47 1011.8
20260905152523 95 284 1.0 3.0 0.00 0.00 0.00 50 1012.4
20260905152023 94 280 1.0 2.0 0.00 0.00 0.00 52 1012.8
20260905151541 94 217 1.0 3.0 0.00 0.00 0.00 54 1013.1
20260905151020 94 243 0.0 2.0 0.00 0.00 0.00 54 1013.2
20260905150526 94 257 1.0 2.0 0.00 0.00 0.00 53 1012.9
20260905150026 93 256 1.0 2.0 0.00 0.00 0.00 54 1013.0
20260905145527 93 136 1.0 3.0 0.00 0.00 0.00 54 1013.0
20260905145026 92 245 1.0 2.0 0.00 0.00 0.00 55 1013.1
20260905144527 91 228 1.0 3.0 0.00 0.00 0.00 57 1013.5
20260905144027 90 126 0.0 2.0 0.00 0.00 0.00 58 1014.2
20260905143526 88 260 1.0 2.0 0.00 0.00 0.00 60 1016.0
20260905143027 88 244 1.0 2.0 0.00 0.00 0.00 62 1019.3
20260905142527 87 248 2.0 3.0 0.00 0.00 0.00 63 1021.5
20260905142027 87 229 1.0 2.0 0.00 0.00 0.00 64 1023.1
20260905141528 86 171 1.0 2.0 0.00 0.00 0.00 65 1026.1
20260905141028 86 188 2.0 3.0 0.00 0.00 0.00 65 1029.1
20260905140530 85 220 2.0 4.0 0.00 0.00 0.00 66 1033.1
20260905140028 85 236 2.0 3.0 0.00 0.00 0.00 67 1036.0
20260905135547 84 214 1.0 2.0 0.00 0.00 0.00 67 1039.8
20260905135028 84 178 1.0 2.0 0.00 0.00 0.00 68 1041.3
20260905134528 84 201 1.0 2.0 0.00 0.00 0.00 68 1043.7
20260905134030 83 197 2.0 2.0 0.00 0.00 0.00 69 1046.1
20260905133529 83 221 1.0 2.0 0.00 0.00 0.00 69 1046.1
20260905133029 83 230 2.0 2.0 0.00 0.00 0.00 70 858.3
20260905132530 83 162 1.0 3.0 0.00 0.00 0.00 71 858.2
20260905132028 82 180 1.0 2.0 0.00 0.00 0.00 71 858.2
20260905131551 82 187 1.0 3.0 0.00 0.00 0.00 72 858.1
20260905131028 82 130 1.0 2.0 0.00 0.00 0.00 72 858.1
20260905130528 82 135 1.0 2.0 0.00 0.00 0.00 73 858.1
20260905130028 81 181 1.0 2.0 0.00 0.00 0.00 73 858.1
20260905125529 81 213 1.0 2.0 0.00 0.00 0.00 73 858.1
20260905125029 81 219 1.0 2.0 0.00 0.00 0.00 73 858.0
20260905124532 81 208 2.0 3.0 0.00 0.00 0.00 74 858.0
20260905124049 81 209 1.0 2.0 0.00 0.00 0.00 74 858.0
20260905123530 81 227 1.0 2.0 0.00 0.00 0.00 74 858.0
20260905123029 81 200 1.0 2.0 0.00 0.00 0.00 74 858.0
20260905122550 81 200 1.0 2.0 0.00 0.00 0.00 74 858.0
20260905122030 81 185 1.0 2.0 0.00 0.00 0.00 74 858.0
20260905121610 81 214 1.0 2.0 0.00 0.00 0.00 74 858.0
20260905121105 81 211 1.0 2.0 0.00 0.00 0.00 74 858.0
20260905120533 80 212 1.0 2.0 0.00 0.00 0.00 74 858.0
20260905120030 80 214 1.0 2.0 0.00 0.00 0.00 74 858.0
20260905115532 80 215 1.0 2.0 0.00 0.00 0.00 74 858.0
20260905115031 80 214 1.0 2.0 0.00 0.00 0.00 75 858.0
20260905114530 80 209 1.0 2.0 0.00 0.00 0.00 75 858.0
20260905114031 79 199 1.0 1.0 0.00 0.00 0.00 76 857.9
20260905113550 79 192 1.0 2.0 0.00 0.00 0.00 77 857.9
20260905113030 79 172 1.0 2.0 0.00 0.00 0.00 78 857.9
20260905112531 79 192 1.0 1.0 0.00 0.00 0.00 80 857.9
20260905112030 79 208 1.0 1.0 0.00 0.00 0.00 80 857.9
20260905111531 79 204 1.0 1.0 0.00 0.00 0.00 80 857.9
20260905111032 79 200 1.0 1.0 0.00 0.00 0.00 79 857.9
20260905110531 79 232 1.0 2.0 0.00 0.00 0.00 79 857.9
20260905110031 79 230 1.0 2.0 0.00 0.00 0.00 80 857.9
20260905105533 79 225 1.0 2.0 0.00 0.00 0.00 79 857.9
20260905105031 79 216 0.0 1.0 0.00 0.00 0.00 79 857.9
20260905104532 79 214 0.0 1.0 0.00 0.00 0.00 79 857.9
20260905104031 79 214 0.0 1.0 0.00 0.00 0.00 79 857.9
20260905103531 79 219 0.0 1.0 0.00 0.00 0.00 78 857.9
20260905103031 80 210 1.0 1.0 0.00 0.00 0.00 78 857.9
20260905102532 80 212 1.0 1.0 0.00 0.00 0.00 78 857.9
20260905102053 80 211 1.0 1.0 0.00 0.00 0.00 78 857.9
20260905101534 80 211 1.0 1.0 0.00 0.00 0.00 77 857.9
20260905101033 80 215 1.0 1.0 0.00 0.00 0.00 77 857.9
20260905100534 80 212 0.0 2.0 0.00 0.00 0.00 76 858.0
20260905100052 80 222 0.0 2.0 0.00 0.00 0.00 76 902.5
20260905095533 81 221 0.0 2.0 0.00 0.00 0.00 76 1080.4
20260905095035 81 220 0.0 1.0 0.00 0.00 0.00 75 1078.7
20260905094533 81 228 1.0 3.0 0.00 0.00 0.00 75 1077.7
20260905094033 81 232 3.0 3.0 0.00 0.00 0.00 75 1077.8
20260905093534 81 232 2.0 3.0 0.00 0.00 0.00 75 1076.6
20260905093053 81 230 2.0 3.0 0.00 0.00 0.00 75 1076.1
20260905092533 81 232 2.0 3.0 0.00 0.00 0.00 74 1075.8
20260905092034 81 224 1.0 2.0 0.00 0.00 0.00 74 1075.7
20260905091533 81 232 2.0 3.0 0.00 0.00 0.00 74 1076.2
20260905091033 81 233 2.0 3.0 0.00 0.00 0.00 74 1075.7
20260905090535 81 226 1.0 2.0 0.00 0.00 0.00 74 1073.7
20260905090034 81 220 1.0 2.0 0.00 0.00 0.00 74 1073.9
20260905085533 82 212 1.0 1.0 0.00 0.00 0.00 74 1073.5
20260905085053 82 216 1.0 1.0 0.00 0.00 0.00 73 1071.7
20260905084533 81 218 0.0 1.0 0.00 0.00 0.00 73 1071.5
20260905084033 81 215 0.0 1.0 0.00 0.00 0.00 74 1073.9
20260905083534 81 216 0.0 1.0 0.00 0.00 0.00 74 1074.5
20260905083036 81 214 1.0 1.0 0.00 0.00 0.00 75 1077.4
20260905082534 81 215 1.0 1.0 0.00 0.00 0.00 75 1078.2
20260905082049 82 209 1.0 1.0 0.00 0.00 0.00 75 1079.2
20260905081535 82 210 1.0 1.0 0.00 0.00 0.00 75 1077.2
20260905081036 82 212 1.0 1.0 0.00 0.00 0.00 74 1075.7
20260905080533 82 218 0.0 1.0 0.00 0.00 0.00 74 1074.3
20260905080035 82 219 1.0 2.0 0.00 0.00 0.00 73 1070.5
20260905075520 82 220 0.0 1.0 0.00 0.00 0.00 73 1068.3
20260905075035 82 229 2.0 3.0 0.00 0.00 0.00 72 1065.8
20260905074519 82 233 2.0 3.0 0.00 0.00 0.00 72 1066.0
20260905074019 82 240 3.0 3.0 0.00 0.00 0.00 72 1065.8
20260905073536 83 239 3.0 3.0 0.00 0.00 0.00 72 1065.7
20260905073034 83 230 2.0 3.0 0.00 0.00 0.00 72 1064.2
20260905072535 83 219 1.0 2.0 0.00 0.00 0.00 72 1063.3
20260905072034 83 217 1.0 1.0 0.00 0.00 0.00 71 1061.4
20260905071535 83 215 1.0 1.0 0.00 0.00 0.00 71 1061.0
20260905071035 83 217 1.0 2.0 0.00 0.00 0.00 71 1060.5
20260905070555 83 230 2.0 3.0 0.00 0.00 0.00 71 1058.7
20260905070038 83 234 3.0 3.0 0.00 0.00 0.00 71 1058.5
20260905065537 83 233 2.0 3.0 0.00 0.00 0.00 71 1058.1
20260905065055 83 229 2.0 3.0 0.00 0.00 0.00 70 1056.3
20260905064541 83 219 0.0 1.0 0.00 0.00 0.00 70 1055.6
20260905064020 83 217 1.0 2.0 0.00 0.00 0.00 70 1053.3
20260905063521 83 218 0.0 1.0 0.00 0.00 0.00 69 1052.6
20260905063100 83 223 1.0 2.0 0.00 0.00 0.00 70 1053.2
20260905062521 83 227 2.0 2.0 0.00 0.00 0.00 68 1047.7
20260905062021 83 222 1.0 2.0 0.00 0.00 0.00 69 1048.5
20260905061521 83 223 1.0 2.0 0.00 0.00 0.00 69 1049.3
20260905061041 83 212 1.0 2.0 0.00 0.00 0.00 69 1050.0
20260905060523 83 220 0.0 2.0 0.00 0.00 0.00 69 1048.2
20260905060021 83 222 1.0 2.0 0.00 0.00 0.00 68 1046.4
20260905055522 83 220 0.0 1.0 0.00 0.00 0.00 68 1047.4
20260905055042 83 222 1.0 2.0 0.00 0.00 0.00 68 1047.4
20260905054523 84 218 0.0 1.0 0.00 0.00 0.00 68 1045.9
20260905054024 84 217 1.0 2.0 0.00 0.00 0.00 68 1044.9
20260905053522 84 214 1.0 2.0 0.00 0.00 0.00 68 1045.5